Weather History for KCKC - November, 2012

Change the Weather History Date:

Thursday, November 1, 2012

  Actual Average Record
Temperature  
Mean Temperature 30 °F -  
Max Temperature 35 °F 38 °F 59 °F (2001)
Min Temperature 23 °F 26 °F 8 °F (2014)
Degree Days  
Heating Degree Days 36    
Moisture  
Dew Point 21 °F    
Average Humidity 68    
Maximum Humidity 86    
Minimum Humidity 55    
Precipitation  
Precipitation 0.00 in - - ()
Sea Level Pressure  
Sea Level Pressure 29.86 in    
Wind  
Wind Speed 12 mph (NW)    
Max Wind Speed 21 mph    
Max Gust Speed 30 mph    
Visibility 10 miles    
Events Snow    
Averages and records for this station are not official NWS values.
T = Trace of Precipitation, MM = Missing Value Source: NWS Daily Summary

Daily Weather History Graph

Daily Weather History Graph

Search for Another Location

Airport or City:

Trip Planner

Search our weather history database for the weather conditions in past years. The results will help you decide how hot, cold, wet, or windy it might be!

Date:

Astronomy

Nov. 01, 2012 Rise Set
Actual Time 7:46 AM CDT 5:42 PM CDT
Civil Twilight 7:14 AM CDT 6:15 PM CDT
Nautical Twilight 6:37 AM CDT 6:51 PM CDT
Astronomical Twilight 6:01 AM CDT 7:27 PM CDT
Moon 7:30 PM CDT 10:29 AM CDT
Length of Visible Light 11h 00m
Length of Day
9h 55m
Waning Gibbous, 93% of the Moon is Illuminated
Nov 1
Waning Gibbous
Nov 6
Last Quarter
Nov 13
New
Nov 20
First Quarter
Nov 28
Full

Hourly Weather History & Observations

Time (CDT) Temp. Windchill Dew Point Humidity Pressure Visibility Wind Dir Wind Speed Gust Speed Precip Events Conditions
12:13 AM 30.2 °F 23.4 °F 15.8 °F 55% 29.81 in 10.0 mi NW 6.9 mph - N/A   Scattered Clouds
12:33 AM 30.2 °F 22.6 °F 15.8 °F 55% 29.81 in 10.0 mi NW 8.1 mph - N/A   Scattered Clouds
12:53 AM 30.2 °F 21.9 °F 15.8 °F 55% 29.81 in 10.0 mi NW 9.2 mph - N/A   Mostly Cloudy
1:13 AM 30.2 °F 23.4 °F 15.8 °F 55% 29.81 in 10.0 mi NW 6.9 mph - N/A   Mostly Cloudy
1:34 AM 30.2 °F 23.4 °F 15.8 °F 55% 29.80 in 10.0 mi NW 6.9 mph 17.3 mph N/A   Overcast
1:53 AM 30.2 °F 22.6 °F 15.8 °F 55% 29.80 in 10.0 mi NW 8.1 mph 17.3 mph N/A   Mostly Cloudy
2:14 AM 30.2 °F 21.3 °F 15.8 °F 55% 29.80 in 10.0 mi NW 10.4 mph 16.1 mph N/A   Scattered Clouds
2:34 AM 30.2 °F 21.9 °F 15.8 °F 55% 29.80 in 10.0 mi NW 9.2 mph - N/A   Scattered Clouds
2:53 AM 30.2 °F 22.6 °F 17.6 °F 60% 29.80 in 10.0 mi NW 8.1 mph 18.4 mph N/A   Mostly Cloudy
3:13 AM 32.0 °F 24.2 °F 19.4 °F 60% 29.79 in 10.0 mi NW 9.2 mph 17.3 mph N/A   Mostly Cloudy
3:33 AM 30.2 °F 20.8 °F 21.2 °F 69% 29.79 in 10.0 mi NW 11.5 mph 23.0 mph N/A   Overcast
3:53 AM 30.2 °F 20.8 °F 23.0 °F 75% 29.79 in 10.0 mi NW 11.5 mph 23.0 mph N/A   Overcast
4:14 AM 30.2 °F 20.8 °F 24.8 °F 80% 29.79 in 10.0 mi NW 11.5 mph 16.1 mph N/A   Overcast
4:34 AM 32.0 °F 23.6 °F 24.8 °F 75% 29.79 in 10.0 mi NW 10.4 mph 20.7 mph N/A   Overcast
5:14 AM 30.2 °F 21.3 °F 24.8 °F 80% 29.79 in 10.0 mi NW 10.4 mph 20.7 mph N/A   Overcast
5:33 AM 32.0 °F 23.6 °F 26.6 °F 80% 29.79 in 10.0 mi NW 10.4 mph 20.7 mph N/A   Overcast
5:53 AM 30.2 °F 21.3 °F 24.8 °F 80% 29.79 in 10.0 mi NW 10.4 mph 23.0 mph N/A   Mostly Cloudy
6:14 AM 30.2 °F 18.5 °F 24.8 °F 80% 29.79 in 10.0 mi NW 17.3 mph 25.3 mph N/A   Mostly Cloudy
6:34 AM 30.2 °F 20.2 °F 24.8 °F 80% 29.79 in 10.0 mi NW 12.7 mph 24.2 mph N/A   Mostly Cloudy
6:54 AM 32.0 °F 20.1 °F 26.6 °F 80% 29.79 in 10.0 mi NW 19.6 mph 26.5 mph N/A   Overcast
7:14 AM 32.0 °F 20.8 °F 26.6 °F 80% 29.79 in 7.0 mi NW 17.3 mph 26.5 mph N/A   Overcast
7:34 AM 30.2 °F 19.3 °F 26.6 °F 86% 29.79 in 7.0 mi NW 15.0 mph 25.3 mph N/A   Mostly Cloudy
7:53 AM 32.0 °F 20.5 °F 26.6 °F 80% 29.80 in 10.0 mi NW 18.4 mph 27.6 mph N/A   Overcast
8:33 AM 32.0 °F 20.5 °F 26.6 °F 80% 29.82 in 10.0 mi NW 18.4 mph 26.5 mph N/A   Overcast
9:14 AM 33.8 °F 23.2 °F 24.8 °F 70% 29.82 in 10.0 mi NW 17.3 mph 24.2 mph N/A   Overcast
9:34 AM 33.8 °F 23.5 °F 26.6 °F 75% 29.82 in 1.8 mi NW 16.1 mph 24.2 mph N/A Snow Light Snow
9:54 AM 33.8 °F 24.8 °F 26.6 °F 75% 29.83 in 10.0 mi NW 12.7 mph 26.5 mph N/A   Mostly Cloudy
10:14 AM 33.8 °F 24.8 °F 24.8 °F 70% 29.83 in 10.0 mi NW 12.7 mph 26.5 mph N/A   Mostly Cloudy
10:33 AM 33.8 °F 25.3 °F 26.6 °F 75% 29.84 in 2.5 mi NW 11.5 mph 20.7 mph N/A Snow Light Snow
10:54 AM 33.8 °F 24.3 °F 26.6 °F 75% 29.84 in 5.0 mi NW 13.8 mph 19.6 mph N/A Snow Light Snow
11:13 AM 33.8 °F 22.2 °F 24.8 °F 70% 29.85 in 10.0 mi NNW 20.7 mph 27.6 mph N/A   Overcast
11:34 AM 33.8 °F 23.5 °F 24.8 °F 70% 29.85 in 10.0 mi NNW 16.1 mph 24.2 mph N/A   Overcast
11:54 AM 33.8 °F 24.3 °F 24.8 °F 70% 29.85 in 10.0 mi NNW 13.8 mph 26.5 mph N/A   Overcast
12:14 PM 33.8 °F 23.5 °F 23.0 °F 65% 29.86 in 10.0 mi NNW 16.1 mph 27.6 mph N/A   Overcast
12:34 PM 33.8 °F 23.2 °F 23.0 °F 65% 29.86 in 10.0 mi NNW 17.3 mph 29.9 mph N/A   Overcast
1:13 PM 35.6 °F 26.2 °F 23.0 °F 60% 29.85 in 10.0 mi NW 15.0 mph 26.5 mph N/A   Mostly Cloudy
1:33 PM 35.6 °F 27.5 °F 23.0 °F 60% 29.85 in 10.0 mi WNW 11.5 mph 20.7 mph N/A   Overcast
1:53 PM 35.6 °F 26.6 °F 24.8 °F 65% 29.85 in 10.0 mi NW 13.8 mph 25.3 mph N/A   Mostly Cloudy
2:14 PM 35.6 °F 26.2 °F 23.0 °F 60% 29.85 in 10.0 mi NNW 15.0 mph 24.2 mph N/A   Mostly Cloudy
2:33 PM 35.6 °F 27.1 °F 24.8 °F 65% 29.85 in 10.0 mi NW 12.7 mph 21.9 mph N/A   Mostly Cloudy
2:53 PM 35.6 °F 26.2 °F 21.2 °F 56% 29.85 in 10.0 mi NW 15.0 mph 26.5 mph N/A   Overcast
3:13 PM 33.8 °F 23.9 °F 21.2 °F 60% 29.86 in 10.0 mi NW 15.0 mph 23.0 mph N/A   Overcast
3:33 PM 33.8 °F 23.9 °F 19.4 °F 56% 29.86 in 10.0 mi NW 15.0 mph 25.3 mph N/A   Overcast
3:53 PM 33.8 °F 24.3 °F 19.4 °F 56% 29.86 in 10.0 mi NW 13.8 mph 26.5 mph N/A   Overcast
4:13 PM 32.0 °F 20.5 °F 21.2 °F 64% 29.87 in 10.0 mi NW 18.4 mph 25.3 mph N/A   Overcast
4:34 PM 30.2 °F 19.3 °F 19.4 °F 64% 29.88 in 10.0 mi NW 15.0 mph 26.5 mph N/A   Scattered Clouds
5:13 PM 30.2 °F 19.8 °F 19.4 °F 64% 29.90 in 10.0 mi NNW 13.8 mph 23.0 mph N/A   Clear
5:33 PM 28.4 °F 18.5 °F 19.4 °F 69% 29.90 in 10.0 mi NW 11.5 mph 21.9 mph N/A   Clear
6:13 PM 28.4 °F 17.5 °F 17.6 °F 64% 29.92 in 10.0 mi NW 13.8 mph 26.5 mph N/A   Clear
6:33 PM 28.4 °F 18.0 °F 17.6 °F 64% 29.93 in 10.0 mi NW 12.7 mph 19.6 mph N/A   Clear
6:54 PM 28.4 °F 19.1 °F 17.6 °F 64% 29.93 in 10.0 mi WNW 10.4 mph 20.7 mph N/A   Clear
7:14 PM 26.6 °F 15.7 °F 17.6 °F 69% 29.93 in 10.0 mi NW 12.7 mph 21.9 mph N/A   Clear
7:34 PM 26.6 °F 15.2 °F 17.6 °F 69% 29.94 in 10.0 mi NW 13.8 mph 24.2 mph N/A   Clear
7:54 PM 26.6 °F 16.2 °F 17.6 °F 69% 29.94 in 10.0 mi NW 11.5 mph 21.9 mph N/A   Clear
8:14 PM 26.6 °F 17.5 °F 17.6 °F 69% 29.95 in 10.0 mi NW 9.2 mph 21.9 mph N/A   Clear
8:34 PM 26.6 °F 15.7 °F 17.6 °F 69% 29.95 in 10.0 mi NW 12.7 mph 20.7 mph N/A   Clear
8:53 PM 26.6 °F 15.2 °F 17.6 °F 69% 29.96 in 10.0 mi NW 13.8 mph 24.2 mph N/A   Clear
9:14 PM 24.8 °F 12.9 °F 17.6 °F 74% 29.96 in 10.0 mi NW 13.8 mph 23.0 mph N/A   Clear
9:33 PM 24.8 °F 13.4 °F 17.6 °F 74% 29.97 in 10.0 mi NNW 12.7 mph 20.7 mph N/A   Clear
9:54 PM 24.8 °F 14.6 °F 17.6 °F 74% 29.97 in 10.0 mi NNW 10.4 mph 21.9 mph N/A   Clear
10:13 PM 24.8 °F 13.4 °F 17.6 °F 74% 29.97 in 10.0 mi NW 12.7 mph 18.4 mph N/A   Clear
10:33 PM 24.8 °F 12.9 °F 17.6 °F 74% 29.97 in 10.0 mi NW 13.8 mph 19.6 mph N/A   Clear
10:54 PM 24.8 °F 12.9 °F 17.6 °F 74% 29.97 in 10.0 mi NW 13.8 mph 21.9 mph N/A   Clear
11:13 PM 24.8 °F 14.6 °F 17.6 °F 74% 29.97 in 10.0 mi NW 10.4 mph 17.3 mph N/A   Clear
11:33 PM 24.8 °F 12.4 °F 17.6 °F 74% 29.98 in 10.0 mi NNW 15.0 mph 21.9 mph N/A   Clear
11:54 PM 23.0 °F 10.6 °F 15.8 °F 74% 29.98 in 10.0 mi NW 13.8 mph 20.7 mph N/A   Clear